Tracking 28335 objects as of 4-Dec-2023
HD Live streaming from Space Station
objects crossing your sky now

COSMOS 1375 DEB

Track COSMOS 1375 DEB now!
10-day predictions


NORAD ID: 16202
Int'l Code: 1982-055D
Perigee: 855.8 km
Apogee: 963.8 km
Inclination: 65.8 °
Period: 103.0 minutes
Semi major axis: 7280 km
RCS: 0.038 m2 (small)
Launch date: June 6, 1982
Source: Commonwealth of Independent States (former USSR) (CIS)
Launch site: PLESETSK MISSILE AND SPACE COMPLEX (PKMTR)

Note: This is SATELLITE DEBRIS
Your satellite tracking list
Your tracking list is empty




NASA's NSSDC Master Catalog

Two Line Element Set (TLE):
1 16202U 82055D   23337.60435072  .00000732  00000-0  56765-3 0  9990
2 16202  65.8269 164.3755 0074162 105.2231 315.9890 13.97456339108299
Source of the keplerian elements: AFSPC